GW4332 Weather Reports


time (UTC)temp
C
wind
direction
speed
KPH
gust
KPH
rain 1hr
cm
rain 24hr
cm
rain mn
cm
humidity
%
barometer
mb
20260905202030 16 315 17.7 22.5 0.00 0.00 0.00 71 1025.3
20260905201030 16 304 19.3 24.1 0.00 0.00 0.00 70 1025.2
20260905200029 16 306 20.9 27.4 0.00 0.00 0.00 72 1025.2
20260905195030 16 307 20.9 25.7 0.00 0.00 0.00 71 1025.3
20260905194030 16 300 24.1 29.0 0.00 0.00 0.00 71 1025.2
20260905193030 17 294 24.1 30.6 0.00 0.00 0.00 71 1025.1
20260905192030 17 298 25.7 32.2 0.00 0.00 0.00 72 1024.9
20260905191030 17 296 25.7 33.8 0.00 0.00 0.00 72 1024.8
20260905190030 17 290 29.0 35.4 0.00 0.00 0.00 69 1024.7
20260905185030 17 291 29.0 41.8 0.00 0.00 0.00 69 1024.5
20260905184030 17 297 29.0 43.5 0.00 0.00 0.00 69 1024.3
20260905183030 17 282 32.2 45.1 0.00 0.00 0.00 67 1024.2
20260905182030 17 295 30.6 40.2 0.00 0.00 0.00 72 1024.2
20260905181029 17 298 30.6 37.0 0.00 0.00 0.00 72 1024.1
20260905180030 17 298 24.1 38.6 0.00 0.00 0.00 73 1023.8
20260905175030 17 302 25.7 32.2 0.00 0.00 0.00 74 1024.0
20260905174029 17 294 29.0 35.4 0.00 0.00 0.00 74 1024.0
20260905173031 17 289 30.6 37.0 0.00 0.00 0.00 75 1024.0
20260905172029 17 290 30.6 41.8 0.00 0.00 0.00 74 1023.8
20260905171030 17 292 29.0 35.4 0.00 0.00 0.00 75 1023.9
20260905170030 17 290 32.2 41.8 0.00 0.00 0.00 75 1023.8
20260905165029 17 295 30.6 41.8 0.00 0.00 0.00 73 1023.7
20260905164030 17 289 30.6 43.5 0.00 0.00 0.00 73 1023.6
20260905163030 17 283 32.2 41.8 0.00 0.00 0.00 72 1023.6
20260905162030 17 281 35.4 45.1 0.00 0.00 0.00 68 1023.4
20260905161030 17 272 35.4 46.7 0.00 0.00 0.00 68 1023.2
20260905160030 17 282 37.0 46.7 0.00 0.00 0.00 68 1023.0
20260905155029 17 287 37.0 49.9 0.00 0.00 0.00 67 1022.8
20260905154030 17 286 35.4 45.1 0.00 0.00 0.00 71 1022.9
20260905153030 17 292 35.4 45.1 0.00 0.00 0.00 71 1022.8
20260905152030 17 287 41.8 49.9 0.00 0.00 0.00 69 1022.5
20260905151030 17 277 41.8 51.5 0.00 0.00 0.00 70 1022.5
20260905150030 17 284 37.0 48.3 0.00 0.00 0.00 69 1022.3
20260905145030 17 287 32.2 41.8 0.00 0.00 0.00 72 1022.4
20260905144030 17 287 37.0 48.3 0.00 0.00 0.00 71 1022.2
20260905143030 17 286 35.4 45.1 0.00 0.00 0.00 70 1022.1
20260905142029 18 279 37.0 46.7 0.00 0.00 0.00 70 1022.1
20260905141030 18 276 41.8 51.5 0.00 0.00 0.00 68 1021.9
20260905140030 18 278 40.2 49.9 0.00 0.00 0.00 69 1021.8
20260905135029 18 274 41.8 56.3 0.00 0.00 0.00 69 1021.7
20260905134030 18 278 45.1 56.3 0.00 0.00 0.00 72 1021.6
20260905133030 18 266 38.6 51.5 0.00 0.00 0.00 71 1021.5
20260905132030 18 275 43.5 53.1 0.00 0.00 0.00 73 1021.4
20260905131030 18 274 43.5 53.1 0.00 0.00 0.00 72 1021.3
20260905130030 17 277 41.8 53.1 0.00 0.00 0.00 73 1021.3
20260905125030 17 280 43.5 51.5 0.00 0.00 0.00 72 1021.2
20260905124030 18 277 46.7 56.3 0.00 0.00 0.00 71 1021.1
20260905123030 17 262 45.1 56.3 0.00 0.00 0.00 73 1021.0
20260905122030 18 266 41.8 48.3 0.00 0.00 0.00 73 1021.0
20260905121030 17 264 43.5 56.3 0.00 0.00 0.00 72 1020.8
20260905120030 17 253 48.3 59.5 0.00 0.00 0.00 71 1020.6
20260905115030 17 271 45.1 56.3 0.00 0.00 0.00 70 1020.6
20260905114030 17 276 40.2 51.5 0.00 0.00 0.00 71 1020.6
20260905113030 17 288 35.4 46.7 0.00 0.00 0.00 73 1020.5
20260905112030 17 281 45.1 57.9 0.00 0.00 0.00 73 1020.2
20260905111030 17 270 48.3 56.3 0.00 0.00 0.00 73 1020.1
20260905110030 17 261 43.5 57.9 0.00 0.00 0.00 70 1019.8
20260905105030 17 261 45.1 53.1 0.00 0.00 0.00 74 1019.8
20260905104030 17 269 45.1 56.3 0.00 0.00 0.00 75 1019.6
20260905103030 17 255 43.5 54.7 0.00 0.00 0.00 79 1019.6
20260905102030 17 265 43.5 56.3 0.00 0.00 0.00 79 1019.3
20260905101030 17 277 45.1 54.7 0.00 0.00 0.00 82 1019.4
20260905100030 17 259 48.3 62.8 0.00 0.00 0.00 79 1019.2
20260905095030 17 252 51.5 62.8 0.00 0.00 0.00 77 1018.9
20260905094030 17 272 45.1 54.7 0.00 0.00 0.00 75 1018.9
20260905093030 17 273 46.7 56.3 0.00 0.00 0.00 73 1018.7
20260905092029 17 256 45.1 53.1 0.00 0.00 0.00 75 1018.8
20260905091030 17 265 48.3 59.5 0.00 0.00 0.00 73 1018.5
20260905090030 17 262 53.1 64.4 0.00 0.00 0.00 73 1018.3
20260905085030 17 258 53.1 64.4 0.00 0.00 0.00 78 1018.1
20260905084030 17 258 49.9 64.4 0.00 0.00 0.00 78 1017.8
20260905083030 17 259 48.3 62.8 0.00 0.00 0.00 78 1017.8
20260905082030 17 262 51.5 61.2 0.00 0.00 0.00 78 1017.4
20260905081030 17 267 51.5 64.4 0.00 0.00 0.00 79 1017.3
20260905080030 17 263 48.3 56.3 0.00 0.00 0.00 80 1017.1
20260905075030 17 260 48.3 59.5 0.00 0.00 0.00 79 1017.0
20260905074029 17 253 45.1 57.9 0.00 0.00 0.00 79 1016.8
20260905073030 17 255 41.8 53.1 0.00 0.00 0.00 80 1016.7
20260905072030 17 260 45.1 54.7 0.00 0.00 0.00 79 1016.5
20260905071030 17 257 46.7 57.9 0.00 0.00 0.00 80 1016.4
20260905070030 17 255 41.8 56.3 0.00 0.00 0.00 79 1016.4
20260905065030 17 244 35.4 48.3 0.00 0.00 0.00 81 1016.4
20260905064030 17 244 35.4 46.7 0.00 0.00 0.00 81 1016.4
20260905063029 17 257 35.4 46.7 0.00 0.00 0.00 81 1016.3
20260905062030 17 240 32.2 45.1 0.00 0.00 0.00 82 1016.3
20260905061030 17 221 30.6 38.6 0.00 0.00 0.00 82 1016.3
20260905060030 17 245 29.0 43.5 0.00 0.00 0.00 81 1016.2
20260905055030 17 238 33.8 41.8 0.00 0.00 0.00 81 1016.1
20260905054030 17 230 29.0 41.8 0.00 0.00 0.00 81 1016.1
20260905053030 17 229 30.6 40.2 0.00 0.00 0.00 80 1015.9
20260905052029 17 235 27.4 38.6 0.00 0.00 0.00 81 1015.8
20260905051030 17 239 30.6 43.5 0.00 0.00 0.00 80 1015.7
20260905050030 17 243 27.4 38.6 0.00 0.00 0.00 80 1015.7
20260905045030 17 227 30.6 43.5 0.00 0.00 0.00 81 1015.6
20260905044030 17 240 29.0 40.2 0.00 0.00 0.00 81 1015.6
20260905043030 17 219 30.6 45.1 0.00 0.00 0.00 80 1015.6
20260905042029 17 243 30.6 45.1 0.00 0.00 0.00 80 1015.6
20260905041030 17 242 27.4 43.5 0.00 0.00 0.00 80 1015.5
20260905040030 17 239 27.4 40.2 0.00 0.00 0.00 79 1015.4
20260905035030 17 234 32.2 45.1 0.00 0.00 0.00 78 1015.3
20260905034030 17 245 32.2 43.5 0.00 0.00 0.00 78 1015.3
20260905033030 17 251 27.4 46.7 0.00 0.00 0.00 77 1015.4
20260905032030 17 246 33.8 43.5 0.00 0.00 0.00 78 1015.3
20260905031030 17 257 35.4 43.5 0.00 0.00 0.00 78 1015.2
20260905030030 17 254 33.8 46.7 0.00 0.00 0.00 77 1015.1
20260905025029 17 241 25.7 41.8 0.00 0.00 0.00 77 1015.1
20260905024030 17 259 32.2 41.8 0.00 0.00 0.00 76 1015.0
20260905023030 17 246 33.8 45.1 0.00 0.00 0.00 77 1015.0
20260905022030 17 238 30.6 43.5 0.00 0.00 0.00 77 1014.9
20260905021030 17 245 35.4 48.3 0.00 0.00 0.00 76 1014.8
20260905020030 17 257 37.0 48.3 0.00 0.00 0.00 76 1014.8
20260905015030 17 255 35.4 46.7 0.00 0.00 0.00 77 1014.7
20260905014030 17 256 37.0 45.1 0.00 0.00 0.00 77 1014.6
20260905013029 17 253 37.0 48.3 0.00 0.00 0.00 76 1014.6
20260905012030 17 259 35.4 46.7 0.00 0.00 0.00 76 1014.5
20260905011030 17 252 38.6 48.3 0.00 0.00 0.00 75 1014.6
20260905010029 17 256 38.6 51.5 0.00 0.00 0.00 76 1014.5
20260905005030 17 244 32.2 43.5 0.00 0.00 0.00 77 1014.5
20260905004030 17 256 35.4 45.1 0.00 0.00 0.00 77 1014.4
20260905003030 17 242 37.0 49.9 0.00 0.00 0.00 76 1014.4
20260905002030 17 257 40.2 46.7 0.00 0.00 0.00 76 1014.5
20260905001030 17 255 38.6 53.1 0.00 0.00 0.00 75 1014.5
20260905000030 18 250 41.8 51.5 0.00 0.00 0.00 75 1014.4
20260904235030 18 253 43.5 53.1 0.00 0.00 0.00 75 1014.3
20260904234030 18 263 41.8 51.5 0.00 0.00 0.00 76 1014.2
20260904233030 18 267 41.8 53.1 0.00 0.00 0.00 75 1014.4
20260904232029 18 265 41.8 51.5 0.00 0.00 0.00 76 1014.3
20260904231030 18 267 40.2 46.7 0.00 0.00 0.00 77 1014.2
20260904230030 18 268 41.8 49.9 0.00 0.00 0.00 75 1014.1
20260904225030 18 275 41.8 53.1 0.00 0.00 0.00 75 1014.1
20260904224030 18 263 41.8 49.9 0.00 0.00 0.00 76 1014.2
20260904223030 18 252 43.5 53.1 0.00 0.00 0.00 75 1014.0
20260904222030 18 256 41.8 53.1 0.00 0.00 0.00 76 1013.9
20260904221030 18 259 46.7 56.3 0.00 0.00 0.00 75 1013.8
20260904220030 18 254 45.1 59.5 0.00 0.00 0.05 75 1013.8
20260904215030 18 257 45.1 56.3 0.00 0.00 0.05 76 1013.6
20260904214030 18 253 45.1 59.5 0.00 0.00 0.05 74 1013.5
20260904213030 18 253 46.7 57.9 0.00 0.00 0.05 75 1013.5
20260904212029 18 263 46.7 59.5 0.00 0.00 0.05 76 1013.3
20260904211030 18 258 43.5 57.9 0.00 0.00 0.05 74 1013.3
20260904210030 18 254 45.1 57.9 0.00 0.00 0.05 75 1013.3
20260904205030 18 259 43.5 56.3 0.00 0.00 0.05 74 1013.2
20260904204030 18 239 35.4 48.3 0.00 0.00 0.05 77 1013.4
20260904203030 18 254 38.6 54.7 0.00 0.00 0.05 75 1013.3